Powrót do katalogu

GLOBALSTAR M100

AktywnyŁącznośćLEO
NORAD 100332·PAYLOAD·🇺🇸 United States

Wystrzelony Aug 16, 2026 z Cape Canaveral Space Force Station

Loading…

Następne Przeloty (najbliższe 24 godziny)

TLE

ŚwieżeSource: Space-Track

Epoka: Sep 14, 2026, 14:29 UTC

1 A0332U 26185H   26257.60380462  .00000223  00000-0  78983-4 0  9997
2 A0332  51.9953 110.8820 0008603 327.7685  32.2745 14.64001229  4328

Śledź GLOBALSTAR M100 w czasie rzeczywistym z AllMySat

Download on the App Store